[[{"header":{"parameterUnit":"m.s-1","parameterCategory":1,"la1":30.2991,"la2":30.254,"lo1":-89.0895,"lo2":-89.0444,"dy":0.0017,"dx":0.0017,"nx":28,"ny":28,"refTime":"2023-06-25T21:00:00:Z","depth":0,"parameterNumber":2,"parameterNumberName":"U-component_of_WINDS"},"data":[0,0,0,0,0,0,0,0,0,0,0,0,0,0,0,0,0,0,0,0,0,0,0,0,0,0,0,0,0,0,0,0,0,0,0,0,0,0,0,0,0,0,0,0,0,0,0,0,0,0,0,0,0,0,0,0,0,0,2.8014,2.8016,0,2.8181,2.8182,2.8184,2.8131,2.8127,2.8124,2.812,2.8296,2.8304,2.8312,0,0,0,0,0,0,0,0,0,0,0,0,0,2.7653,2.766,2.8014,2.8016,2.8018,2.818,2.8183,2.8185,2.8131,2.8127,2.8123,2.8119,2.8294,2.8303,2.8313,0,0,0,0,0,0,0,0,0,0,0,0,0,2.7814,2.7663,2.8013,2.8011,2.8012,2.818,2.8183,2.8185,2.8132,2.8127,2.8122,2.8117,2.8291,2.8302,2.8314,2.8496,0,0,2.8351,2.8356,0,0,0,0,0,0,0,0,2.7805,2.7828,2.8009,2.8011,2.8013,2.8129,2.812,2.829,2.8134,2.8087,2.812,2.8114,2.8246,2.8261,2.8304,2.8504,2.8512,2.8352,2.8359,2.8365,2.8368,0,0,0,0,0,0,0,2.7794,2.782,2.808,2.8012,2.8014,2.8003,2.802,2.8152,2.8195,2.8091,2.8087,2.8107,2.8246,2.8293,2.8308,2.8515,2.8352,2.8362,2.837,2.8375,2.8873,2.8879,0,0,0,0,0,0,2.7781,2.7811,2.8074,2.8085,2.7894,2.8013,2.8032,2.8098,2.8193,2.8202,2.8112,2.8104,2.8275,2.8294,2.8314,2.8534,2.8364,2.8376,2.8383,2.8867,2.8875,2.8881,0,0,0,0,0,0,2.7774,2.7805,2.8068,2.7947,2.798,2.8025,2.8099,2.8104,2.8151,2.8209,2.8217,2.8152,2.8271,2.8297,2.8451,2.8539,2.8381,2.8392,2.886,2.8869,2.8878,2.8975,0,0,0,0,0,0,2.7763,2.7803,2.7871,2.7949,2.7986,2.8201,2.8104,2.8111,2.8171,2.8163,2.8248,2.8258,2.8269,2.8433,2.8463,2.8553,2.8402,2.8852,2.8864,2.8875,2.8964,2.8986,2.9005,0,0,0,0,0,2.7751,2.7893,2.7875,2.7907,2.8073,2.8206,2.8228,2.8237,2.8178,2.8248,2.8286,2.8255,2.8524,2.845,2.8483,2.8578,2.8847,2.8861,2.8874,2.8955,2.8982,2.9005,0,0,0,0,0,0,2.7827,2.7903,2.7884,2.8055,2.8125,2.8197,2.8286,2.8265,2.8353,2.8342,2.8351,2.8371,2.8529,2.8568,2.8484,2.8759,2.8677,2.8698,2.8728,2.8754,2.8774,2.8762,2.8412,0,0,0,0,0,2.7863,2.7963,2.8025,2.8171,2.8206,2.824,2.8299,2.8299,2.8372,2.8401,2.845,2.8523,2.8624,2.8691,2.8787,2.8969,2.8988,2.9051,2.9071,2.9088,2.9106,2.9206,2.9235,2.8925,2.8925,2.8925,0,0,2.794,2.7994,2.8057,2.8187,2.8241,2.8346,2.8265,2.838,2.8459,2.8419,2.8568,2.8606,2.8688,2.8857,2.8934,2.8895,2.9196,2.9105,2.9118,2.9127,2.9223,2.9253,2.9279,2.8935,2.8933,2.8932,0,0,2.8134,2.8184,2.8311,2.8366,2.8447,2.8469,2.8499,2.8575,2.8598,2.8747,2.8719,2.8814,2.8988,2.9047,2.9101,2.9316,2.9292,2.9348,2.9456,2.9553,2.9578,2.9599,2.9678,2.9705,2.9365,2.9366,2.9366,0,2.8219,2.8375,2.8379,2.8497,2.8555,2.8522,2.8652,2.8705,2.8815,2.8857,2.8811,2.9028,2.9081,2.9264,2.9316,2.936,2.9397,2.9339,2.9573,2.9595,2.9616,2.969,2.972,2.9372,2.9371,2.9371,2.937,0,2.8478,2.8586,2.8679,2.8784,2.8853,2.8976,2.9,2.9069,2.9064,2.9091,2.9243,2.9305,2.9413,2.9456,2.9453,2.9639,2.9613,2.957,2.9488,2.9651,2.9722,2.9751,2.9381,2.9379,2.9377,2.9375,0,0,2.8726,2.883,2.8864,2.8912,2.8999,2.9084,2.9205,2.931,2.937,2.9446,2.955,2.9697,2.9658,2.9718,2.9721,2.9806,2.9975,2.9754,2.9756,2.9794,3.0186,3.0219,3.0252,2.9958,2.9964,2.9968,3.0179,0,2.8928,2.914,2.9147,2.9342,2.9443,2.9413,2.9519,2.9585,2.9613,2.9704,2.9735,2.984,2.978,2.9816,2.9899,2.9937,3.0054,2.9921,3.0057,3.0061,3.0039,3.0288,3.0323,3.052,3.0207,3.0212,3.0215,0,2.9192,2.9276,2.948,2.9553,2.9596,2.9691,2.9787,2.9874,2.9949,2.9963,3.003,3.002,3.0146,3.0059,3.0233,3.0143,3.0198,3.0225,3.0233,3.0247,3.0149,3.0311,3.0583,3.0613,3.0258,3.0255,3.0252,0,2.9355,2.9518,2.9661,2.9703,2.9791,2.9859,2.9899,2.9967,3.003,3.0114,3.0155,3.0254,3.0308,3.0385,3.0403,3.0337,3.0578,3.0492,3.0595,3.0595,3.0649,3.0646,3.0935,3.0682,3.0682,3.0681,3.068,0,2.9581,2.9708,2.9735,2.9824,2.9966,2.9972,3.0113,3.0148,3.0209,3.0305,3.0285,3.0376,3.0392,3.0487,3.0502,3.0645,3.0669,3.0686,3.0689,3.0689,3.0687,3.0727,3.0714,3.0689,3.0687,3.0686,3.0684,0,2.9787,2.981,2.9965,3.0035,3.0055,3.0157,3.0217,3.0303,3.0328,3.045,3.0479,3.0519,3.063,3.0654,3.0786,3.0795,3.0966,3.0954,3.0941,3.094,3.1043,3.1033,3.1369,3.1414,3.113,3.1133,3.1135,0,2.993,3.0027,3.0107,3.0169,3.0212,3.0312,3.0375,3.0386,3.0452,3.0544,3.0619,3.0727,3.0814,3.0992,3.1035,3.1135,3.1127,3.1238,3.1142,3.114,3.1131,3.1126,3.1136,3.1257,3.126,3.1262,3.1264,0,3.0183,3.019,3.0281,3.0376,3.0452,3.0528,3.06,3.0653,3.0673,3.0749,3.0861,3.0929,3.1062,3.117,3.1271,3.1314,3.1294,3.1293,3.1323,3.1325,3.1314,3.1323,3.0992,3.1286,3.1284,3.1283,3.1281,3.128,3.0364,3.0448,3.0518,3.062,3.0675,3.0743,3.0827,3.0862,3.0955,3.1064,3.1064,3.1187,3.1259,3.1392,3.1441,3.1538,3.1504,3.1546,3.1557,3.1568,3.1578,3.1297,3.1556,3.1556,3.1555,3.1555,3.1554,0,3.0617,3.0659,3.0753,3.0854,3.0935,3.0906,3.0985,3.1055,3.1163,3.1231,3.1317,3.1446,3.155,3.16,3.1703,3.1772,3.1765,3.1799,3.1795,3.1805,3.1602,3.1567,3.1802,3.1802,3.1802,3.1802,3.1802,3.1802,3.0758,3.09,3.0915,3.1085,3.1127,3.1246,3.1293,3.1356,3.1411,3.1555,3.1642,3.1672,3.1734,3.1841,3.1937,3.1948,3.1988,3.2027,3.2035,3.1845,3.182,3.1796,3.1763,3.2035,3.2036,3.223,3.2232,3.2233]},{"header":{"parameterUnit":"m.s-1","parameterCategory":1,"la1":30.2991,"la2":30.254,"lo1":-89.0895,"lo2":-89.0444,"dy":0.0017,"dx":0.0017,"nx":28,"ny":28,"refTime":"2023-06-25T21:00:00:Z","depth":0,"parameterNumber":3,"parameterNumberName":"V-component_of_WINDS"},"data":[0,0,0,0,0,0,0,0,0,0,0,0,0,0,0,0,0,0,0,0,0,0,0,0,0,0,0,0,0,0,0,0,0,0,0,0,0,0,0,0,0,0,0,0,0,0,0,0,0,0,0,0,0,0,0,0,0,0,5.6016,5.6017,0,5.6179,5.6181,5.6183,5.6144,5.6141,5.6138,5.6135,5.6296,5.6303,5.631,0,0,0,0,0,0,0,0,0,0,0,0,0,5.5662,5.5669,5.6015,5.6018,5.602,5.6179,5.6181,5.6183,5.6145,5.6141,5.6137,5.6134,5.6293,5.6302,5.6311,0,0,0,0,0,0,0,0,0,0,0,0,0,5.5819,5.5671,5.6015,5.602,5.6022,5.6178,5.6181,5.6184,5.6145,5.6141,5.6136,5.6132,5.6291,5.6301,5.6312,5.6472,0,0,5.6345,5.6349,0,0,0,0,0,0,0,0,5.5811,5.5832,5.6017,5.602,5.6022,5.6137,5.6115,5.628,5.6147,5.6098,5.6135,5.6129,5.6246,5.626,5.6301,5.6479,5.6486,5.6346,5.6352,5.6357,5.636,0,0,0,0,0,0,0,5.58,5.5825,5.608,5.602,5.6023,5.6011,5.6028,5.6146,5.6196,5.6102,5.61,5.612,5.6247,5.6291,5.6304,5.6489,5.6345,5.6355,5.6362,5.6366,5.6805,5.681,0,0,0,0,0,0,5.5788,5.5816,5.6075,5.6085,5.5903,5.6021,5.604,5.6104,5.6195,5.6204,5.6124,5.6118,5.6275,5.6292,5.631,5.6503,5.6357,5.6367,5.6373,5.6799,5.6806,5.6811,0,0,0,0,0,0,5.578,5.5811,5.6068,5.595,5.5982,5.6032,5.6104,5.611,5.6154,5.6211,5.6219,5.616,5.6272,5.6295,5.6432,5.6508,5.6372,5.6381,5.6793,5.6801,5.6809,5.6891,0,0,0,0,0,0,5.577,5.5809,5.5872,5.5952,5.5989,5.619,5.6109,5.6117,5.6174,5.6167,5.6248,5.6256,5.627,5.6416,5.6443,5.652,5.639,5.6787,5.6797,5.6806,5.6881,5.69,5.6916,0,0,0,0,0,5.5758,5.5887,5.5876,5.5907,5.6069,5.6195,5.6215,5.623,5.618,5.6243,5.6279,5.6254,5.6495,5.6431,5.646,5.6542,5.6782,5.6794,5.6805,5.6873,5.6896,5.6916,0,0,0,0,0,0,5.5813,5.5898,5.5886,5.6046,5.6114,5.6188,5.6268,5.6254,5.6336,5.6326,5.6338,5.6356,5.6496,5.6533,5.6459,5.6701,5.6631,5.6649,5.6673,5.6695,5.6712,5.6701,5.6399,0,0,0,0,0,5.5844,5.5942,5.6009,5.6144,5.6179,5.6218,5.6273,5.6278,5.6348,5.6376,5.6422,5.6489,5.6579,5.6639,5.6726,5.6886,5.6902,5.6956,5.6974,5.6988,5.7004,5.709,5.7114,5.685,5.685,5.6849,0,0,5.5909,5.5967,5.6028,5.6156,5.621,5.6308,5.6242,5.6349,5.6421,5.6391,5.6525,5.656,5.6635,5.6785,5.6853,5.6819,5.708,5.7003,5.7014,5.7022,5.7104,5.7129,5.7151,5.6858,5.6856,5.6855,0,0,5.6077,5.6132,5.625,5.6305,5.6387,5.6411,5.6439,5.6516,5.654,5.6674,5.6653,5.6738,5.6894,5.6948,5.6996,5.7184,5.7163,5.7211,5.7303,5.7386,5.7407,5.7426,5.7492,5.7516,5.7226,5.7226,5.7227,0,5.6147,5.6297,5.6311,5.6421,5.6477,5.6456,5.6574,5.6625,5.6731,5.6769,5.673,5.6926,5.6974,5.7136,5.7181,5.7221,5.7252,5.7202,5.7404,5.7422,5.744,5.7503,5.7528,5.7232,5.7231,5.7231,5.723,0,5.6378,5.6482,5.6566,5.6671,5.6736,5.6849,5.6878,5.6942,5.6941,5.6969,5.7105,5.7163,5.726,5.7299,5.7298,5.7459,5.7436,5.7401,5.7331,5.747,5.753,5.7554,5.7239,5.7238,5.7236,5.7235,0,0,5.6587,5.6698,5.6729,5.6776,5.6864,5.6943,5.7053,5.7151,5.7205,5.7277,5.7369,5.7501,5.7469,5.7523,5.7528,5.7602,5.7745,5.7557,5.7558,5.7589,5.7925,5.7952,5.798,5.7731,5.7736,5.774,5.7919,0,5.6764,5.6962,5.6977,5.7154,5.7249,5.723,5.7326,5.7389,5.7417,5.75,5.753,5.7624,5.7574,5.7606,5.7678,5.7713,5.7813,5.77,5.7815,5.7819,5.7798,5.8011,5.804,5.8206,5.7942,5.7946,5.7949,0,5.6996,5.7078,5.7266,5.734,5.738,5.7466,5.7556,5.7636,5.7706,5.7721,5.7782,5.7776,5.7887,5.7812,5.7964,5.7887,5.7934,5.7958,5.7965,5.7976,5.7893,5.8028,5.8259,5.8284,5.7986,5.7983,5.798,0,5.713,5.7286,5.7419,5.7459,5.7549,5.761,5.7649,5.7715,5.7772,5.7849,5.7886,5.7975,5.8023,5.809,5.8107,5.8052,5.8258,5.8186,5.8273,5.8272,5.8318,5.8315,5.856,5.8348,5.8348,5.8347,5.8347,0,5.7326,5.7441,5.748,5.7561,5.7689,5.7704,5.7829,5.7865,5.7923,5.8009,5.7996,5.8076,5.8094,5.8177,5.8191,5.8314,5.8335,5.8349,5.8352,5.8351,5.8349,5.8383,5.8372,5.8354,5.8352,5.8351,5.835,0,5.7497,5.7528,5.7671,5.7744,5.7765,5.7856,5.7917,5.7994,5.802,5.8129,5.8155,5.8196,5.8293,5.8317,5.8432,5.8441,5.8586,5.8577,5.8563,5.8563,5.8648,5.864,5.8924,5.8961,5.8725,5.8727,5.8729,0,5.762,5.7709,5.7792,5.785,5.7893,5.7986,5.8044,5.8061,5.8122,5.8208,5.8274,5.837,5.8448,5.8603,5.8641,5.8728,5.8721,5.8815,5.8734,5.873,5.8722,5.8717,5.8725,5.883,5.8833,5.8835,5.8836,0,5.7835,5.7846,5.7933,5.8025,5.8095,5.8168,5.8237,5.8284,5.831,5.8379,5.8479,5.8539,5.8657,5.8752,5.884,5.8877,5.8861,5.8861,5.8886,5.8886,5.8875,5.8882,5.8605,5.8855,5.8853,5.8852,5.8851,5.885,5.7987,5.8064,5.8135,5.8231,5.8285,5.8349,5.8425,5.8461,5.8546,5.8645,5.8649,5.8758,5.8823,5.8939,5.8982,5.9065,5.9036,5.9072,5.9081,5.909,5.9098,5.8861,5.9081,5.908,5.908,5.908,5.9079,0,5.8201,5.8245,5.8334,5.8432,5.8507,5.8487,5.8561,5.8625,5.8721,5.8785,5.8862,5.8976,5.9067,5.9112,5.9202,5.926,5.9254,5.9283,5.9279,5.9287,5.9118,5.9088,5.9286,5.9286,5.9286,5.9286,5.9285,5.9285,5.8321,5.8451,5.847,5.8626,5.8668,5.8777,5.8821,5.888,5.893,5.9059,5.9136,5.9165,5.9221,5.9314,5.9396,5.9407,5.944,5.9472,5.9479,5.932,5.9299,5.9279,5.9251,5.9479,5.948,5.9641,5.9643,5.9644]}]]